WetterOnline ( https://www.wetteronline.at )

Wetter aktuell Prag

Aktuelles Wetter: Prag-Kbely (287m)

6-stündlich | Neueste Meldungen
Ortszeit Temperatur Wetter
Do, 06.08. 14:00 25.3° C fast wolkenlos
Do, 06.08. 8:00 16.8° C wolkenlos
Do, 06.08. 2:00 16.3° C wolkenlos
Mi, 05.08. 20:00 21.1° C leicht bewölkt
Mi, 05.08. 14:00 22.0° C leicht bewölkt
Mi, 05.08. 8:00 14.9° C fast wolkenlos
Mi, 05.08. 2:00 12.0° C fast wolkenlos
Di, 04.08. 20:00 16.8° C wolkig
Ortszeit Temperatur Wetter
Do, 06.08. 14:30 25° C -
Do, 06.08. 14:00 25.3° C fast wolkenlos
Do, 06.08. 13:30 25° C -
Do, 06.08. 13:00 24.4° C fast wolkenlos
Do, 06.08. 12:30 24° C -
Do, 06.08. 12:00 23.7° C fast wolkenlos
Do, 06.08. 11:30 22° C -
Do, 06.08. 11:00 22.1° C fast wolkenlos
Ortszeit Relative Feuchte Sichtweite
Do, 06.08. 14:00 46% 30 km
Do, 06.08. 8:00 70% 30 km
Do, 06.08. 2:00 72% 30 km
Mi, 05.08. 20:00 53% 30 km
Mi, 05.08. 14:00 43% 30 km
Mi, 05.08. 8:00 85% 15 km
Mi, 05.08. 2:00 98% 20 km
Di, 04.08. 20:00 71% 30 km
Ortszeit Relative Feuchte Sichtweite
Do, 06.08. 14:30 47% >10 km
Do, 06.08. 14:00 46% 30 km
Do, 06.08. 13:30 41% >10 km
Do, 06.08. 13:00 45% 30 km
Do, 06.08. 12:30 47% >10 km
Do, 06.08. 12:00 49% 30 km
Do, 06.08. 11:30 50% >10 km
Do, 06.08. 11:00 53% 30 km
Ortszeit Niederschlagsmenge Niederschlagsart
Do, 06.08. 14:00 0.0 l/m2 in 6 Std. -
Do, 06.08. 8:00 0.0 l/m2 in 12 Std. -
Do, 06.08. 2:00 0.0 l/m2 in 6 Std. -
Mi, 05.08. 20:00 0.0 l/m2 in 12 Std. -
Mi, 05.08. 14:00 0.0 l/m2 in 6 Std. -
Mi, 05.08. 8:00 0.0 l/m2 in 12 Std. -
Mi, 05.08. 2:00 0.0 l/m2 in 6 Std. -
Di, 04.08. 20:00 0.5 l/m2 in 12 Std. Regen
Ortszeit Niederschlagsmenge Niederschlagsart
Do, 06.08. 14:30 keine Meldung -
Do, 06.08. 14:00 0.0 l/m2 in 1 Std. -
Do, 06.08. 13:30 keine Meldung -
Do, 06.08. 13:00 0.0 l/m2 in 1 Std. -
Do, 06.08. 12:30 keine Meldung -
Do, 06.08. 12:00 0.0 l/m2 in 1 Std. -
Do, 06.08. 11:30 keine Meldung -
Do, 06.08. 11:00 0.0 l/m2 in 1 Std. -
Ortszeit Stärke Spitze Richtung
km/h Bft. km/h Grad Sektor
Do, 06.08. 14:00 11 2 - 80° O
Do, 06.08. 8:00 7 2 - 350° N
Do, 06.08. 2:00 0 0 - - -
Mi, 05.08. 20:00 7 2 - 60° NO
Mi, 05.08. 14:00 7 2 - 40° NO
Mi, 05.08. 8:00 7 2 - 280° W
Mi, 05.08. 2:00 7 2 - 190° S
Di, 04.08. 20:00 4 1 - 280° W
Ortszeit Stärke Spitze Richtung
km/h Bft. km/h Grad Sektor
Do, 06.08. 14:30 7 2 - 60° NO
Do, 06.08. 14:00 11 2 - 80° O
Do, 06.08. 13:30 7 2 - uml. uml.
Do, 06.08. 13:00 11 2 - 350° N
Do, 06.08. 12:30 9 2 - 40° NO
Do, 06.08. 12:00 7 2 - 100° O
Do, 06.08. 11:30 9 2 - 10° N
Do, 06.08. 11:00 7 2 - 350° N
Ortszeit Untergrenze Bedeckung Gattung
total tief tief mittel hoch
Do, 06.08. 14:00 7200 m 1/8 0/8 - - Ci
Do, 06.08. 8:00 - 0/8 0/8 - - -
Do, 06.08. 2:00 - 0/8 0/8 - - -
Mi, 05.08. 20:00 7200 m 3/8 0/8 - - Ci
Mi, 05.08. 14:00 1500 m 2/8 2/8 Cu - -
Mi, 05.08. 8:00 3300 m 1/8 1/8 - Ac -
Mi, 05.08. 2:00 2100 m 2/8 2/8 - As -
Di, 04.08. 20:00 2400 m 7/8 7/8 - As -
Ortszeit Bedeckungsgrad in Achtel und Wolkenuntergrenze
Do, 06.08. 14:30 keine Wolken(unter 1500 m)
Do, 06.08. 14:00 1(7200m)
Do, 06.08. 13:30 keine Wolken(unter 1500 m)
Do, 06.08. 13:00 1(7200m)
Do, 06.08. 12:30 keine Wolken(unter 1500 m)
Do, 06.08. 12:00 1(7200m)
Do, 06.08. 11:30 keine Wolken(unter 1500 m)
Do, 06.08. 11:00 1(7200m)
Ortszeit Luftdruck NN (hPa) Tendenz (hPa in 3 Std.)
Do, 06.08. 14:00 1021 - 0,6
Do, 06.08. 8:00 1022 + 0,9
Do, 06.08. 2:00 1021 + 0,2
Mi, 05.08. 20:00 1019 + 0,1
Mi, 05.08. 14:00 1020 - 0,3
Mi, 05.08. 8:00 1021 + 0,8
Mi, 05.08. 2:00 1019 + 0,4
Di, 04.08. 20:00 1017 + 1,6
Ortszeit Luftdruck NN (hPa) Tendenz (hPa in 3 Std.)
Do, 06.08. 14:30 1021 keine Meldung
Do, 06.08. 14:00 1021 - 0,6
Do, 06.08. 13:30 1022 keine Meldung
Do, 06.08. 13:00 1021 - 0,4
Do, 06.08. 12:30 1022 keine Meldung
Do, 06.08. 12:00 1021 - 0,3
Do, 06.08. 11:30 1022 keine Meldung
Do, 06.08. 11:00 1022 + 0,3
Ortszeit Schneehöhe (cm)
Do, 06.08. 14:00 -
Do, 06.08. 8:00 0
Do, 06.08. 2:00 -
Mi, 05.08. 20:00 -
Mi, 05.08. 14:00 -
Mi, 05.08. 8:00 -
Mi, 05.08. 2:00 -
Di, 04.08. 20:00 -
Ortszeit Schneehöhe (cm)
Do, 06.08. 14:30 -
Do, 06.08. 14:00 -
Do, 06.08. 13:30 -
Do, 06.08. 13:00 -
Do, 06.08. 12:30 -
Do, 06.08. 12:00 -
Do, 06.08. 11:30 -
Do, 06.08. 11:00 -
Link zu dieser Seite / Seite empfehlen

Das Wetter in ...